[[{"header":{"parameterUnit":"m.s-1","parameterCategory":1,"la1":30.2992,"la2":30.254,"lo1":-89.0895,"lo2":-89.0443,"dy":0.0025,"dx":0.0025,"nx":19,"ny":19,"refTime":"2026-03-24T03:00:00:Z","depth":0,"parameterNumber":2,"parameterNumberName":"U-component_of_WINDS"},"data":[0,0,0,-3.0205,-3.0207,-3.0314,-3.0314,-3.0466,-3.0468,0,0,0,0,0,0,0,0,0,0,0,-3.018,-3.0181,-3.0205,-3.0208,-3.0314,-3.0314,-3.0466,-3.0468,0,0,0,0,0,0,0,0,0,0,0,-3.018,-3.0181,-3.0183,-3.0208,-3.0314,-3.0314,-3.0466,-3.038,0,0,0,0,0,0,0,0,0,0,-3.0275,-3.0257,-3.0181,-3.0183,-3.0209,-3.0314,-3.0314,-3.0376,-3.0386,-3.0424,0,-3.0457,0,-3.0465,-3.0479,-3.0479,0,0,0,-3.0203,-3.0249,-3.0272,-3.0183,-3.021,-3.0314,-3.0265,-3.0381,-3.0392,-3.0437,-3.0459,-3.0465,-3.0467,-3.048,-3.048,-3.071,-3.0711,0,0,-3.0198,-3.0204,-3.0264,-3.0279,-3.0261,-3.0261,-3.0268,-3.0388,-3.0414,-3.046,-3.0468,-3.047,-3.0481,-3.0482,-3.0708,-3.071,0,0,0,-3.0184,-3.02,-3.0219,-3.0273,-3.0291,-3.0265,-3.0272,-3.0408,-3.0414,-3.0469,-3.0472,-3.0482,-3.0484,-3.0707,-3.0709,-3.0775,0,0,0,-3.018,-3.0191,-3.0216,-3.0221,-3.0289,-3.035,-3.029,-3.0406,-3.0419,-3.0471,-3.0482,-3.0485,-3.0705,-3.0708,-3.0771,-3.0806,0,0,0,-3.0171,-3.019,-3.0208,-3.0221,-3.0267,-3.0348,-3.0361,-3.0408,-3.0421,-3.0479,-3.0486,-3.0705,-3.0708,-3.0766,-3.0798,-3.0867,0,0,0,-3.0164,-3.0267,-3.0209,-3.0325,-3.0266,-3.0389,-3.036,-3.0451,-3.051,-3.0483,-3.0706,-3.0709,-3.0765,-3.0794,-3.0862,-3.0923,-3.095,0,0,-3.0297,-3.0283,-3.0351,-3.0302,-3.0436,-3.0372,-3.0517,-3.0566,-3.0568,-3.0663,-3.0669,-3.0772,-3.0798,-3.0866,-3.11,-3.1121,0,0,0,-3.0395,-3.0444,-3.0478,-3.0533,-3.0572,-3.0609,-3.0635,-3.0654,-3.0734,-3.0617,-3.0816,-3.0831,-3.0871,-3.09,-3.0918,-3.0951,-3.0723,-3.0723,-3.0722,-3.0591,-3.0586,-3.0698,-3.0707,-3.0761,-3.0788,-3.0832,-3.0862,-3.0843,-3.0891,-3.0918,-3.106,-3.1095,-3.1108,-3.1143,-3.0952,-3.0952,-3.0952,-3.0952,-3.0784,-3.0851,-3.0824,-3.0922,-3.0918,-3.1002,-3.1033,-3.1017,-3.1096,-3.1039,-3.1074,-3.1009,-3.1131,-3.1161,-3.0957,-3.0957,-3.0956,-3.0956,-3.0955,-3.0909,-3.0941,-3.0961,-3.104,-3.1104,-3.1111,-3.1188,-3.1182,-3.1178,-3.1213,-3.1241,-3.124,-3.1237,-3.1227,-3.1228,-3.1228,-3.1228,-3.1229,-3.1229,-3.103,-3.1051,-3.1115,-3.1166,-3.1201,-3.1247,-3.1277,-3.1313,-3.1351,-3.1341,-3.1342,-3.1318,-3.1144,-3.1099,-3.1237,-3.1235,-3.1234,-3.1234,-3.1233,-3.1224,-3.118,-3.1278,-3.1313,-3.1374,-3.1437,-3.143,-3.1503,-3.1532,-3.1571,-3.1541,-3.1414,-3.1399,-3.1385,-3.1348,-3.1542,-3.1542,-3.1542,-3.1542,-3.1329,-3.1321,-3.142,-3.1477,-3.1533,-3.1537,-3.1651,-3.1677,-3.1697,-3.1716,-3.1688,-3.1639,-3.1625,-3.1619,-3.16,-3.1565,-3.1809,-3.1809,-3.181,-3.1447,-3.1445,-3.1541,-3.1557,-3.1605,-3.1648,-3.1755,-3.1824,-3.1838,-3.182,-3.173,-3.1719,-3.164,-3.1615,-3.1591,-3.1561,-3.1497,0,0]},{"header":{"parameterUnit":"m.s-1","parameterCategory":1,"la1":30.2992,"la2":30.254,"lo1":-89.0895,"lo2":-89.0443,"dy":0.0025,"dx":0.0025,"nx":19,"ny":19,"refTime":"2026-03-24T03:00:00:Z","depth":0,"parameterNumber":3,"parameterNumberName":"V-component_of_WINDS"},"data":[0,0,0,3.0034,3.0035,3.0077,3.0077,3.0119,3.0119,0,0,0,0,0,0,0,0,0,0,0,3.0015,3.0015,3.0034,3.0035,3.0077,3.0077,3.0119,3.0119,0,0,0,0,0,0,0,0,0,0,0,3.0015,3.0015,3.0016,3.0035,3.0077,3.0077,3.0118,3.0091,0,0,0,0,0,0,0,0,0,0,3.0052,3.0029,3.0015,3.0016,3.0035,3.0077,3.0077,3.009,3.0093,3.0095,0,3.0096,0,3.0108,3.0121,3.0121,0,0,0,3.0039,3.0026,3.0044,3.0016,3.0036,3.0077,3.0059,3.0091,3.0095,3.0099,3.0097,3.0099,3.0109,3.0121,3.0121,3.0124,3.0123,0,0,3.0037,3.0019,3.0041,3.0045,3.004,3.0058,3.006,3.0094,3.009,3.0097,3.01,3.011,3.0121,3.0122,3.0124,3.0124,0,0,0,3.0027,3.0017,3.0034,3.0043,3.0052,3.0059,3.0062,3.0088,3.0096,3.01,3.011,3.0122,3.0122,3.0124,3.0124,3.0097,0,0,0,3.0026,3.0012,3.0033,3.0022,3.0051,3.0071,3.0056,3.0093,3.0098,3.011,3.0122,3.0122,3.0124,3.0124,3.0099,3.0087,0,0,0,3.0015,3.001,3.0015,3.0021,3.0039,3.0071,3.008,3.0095,3.0103,3.0121,3.0122,3.0124,3.0124,3.01,3.0089,3.0083,0,0,0,2.9997,2.9989,3.0014,3.0009,3.0038,3.0055,3.008,3.0093,3.0105,3.0122,3.0124,3.0124,3.01,3.009,3.0084,3.0073,3.0068,0,0,2.9977,2.9986,2.9985,3.0008,3.0016,3.005,3.0054,3.0081,3.0098,3.0114,3.0114,3.0098,3.0089,3.0083,3.0044,3.0039,0,0,0,2.9973,2.9971,2.9978,2.9989,3.0012,3.0029,3.0058,3.0069,3.0084,3.0103,3.0095,3.009,3.0087,3.0083,3.0079,3.0078,3.0121,3.0121,3.0121,2.9917,2.9942,2.9942,2.9972,2.9983,3.0014,3.0025,3.0045,3.0064,3.0062,3.0067,3.004,3.0035,3.0032,3.003,3.0064,3.0064,3.0064,3.0064,2.989,2.9892,2.9922,2.9932,2.9958,2.9966,2.9997,3.0011,3.0022,3.0039,3.0037,3.0052,3.0026,3.0026,3.0062,3.0062,3.0063,3.0063,3.0063,2.9855,2.9861,2.9875,2.9897,2.991,2.9941,2.9951,2.9974,2.9995,2.9994,3.0001,3.0001,3.0004,2.9996,2.9996,2.9996,2.9996,2.9996,2.9996,2.9813,2.9831,2.9837,2.9862,2.9874,2.9892,2.9925,2.9936,2.9955,2.9971,2.9971,2.9991,3.002,3.0026,2.9994,2.9995,2.9995,2.9995,2.9995,2.9774,2.9787,2.9797,2.9809,2.9841,2.9853,2.9883,2.9905,2.9918,2.9923,2.9944,2.9962,2.9972,2.9976,2.9981,2.9939,2.9939,2.9939,2.9939,2.9744,2.9753,2.9769,2.9787,2.9806,2.9836,2.9846,2.9872,2.99,2.991,2.992,2.9929,2.9932,2.994,2.9944,2.9949,2.9901,2.9901,2.9901,2.9721,2.9733,2.9737,2.9768,2.9795,2.9817,2.9827,2.9846,2.9881,2.99,2.9918,2.9919,2.9935,2.9939,2.9956,2.9961,2.9972,0,0]}]]